Date_and_time,latitude,longitude,wind_speed,RelWindDirFrom,WindDirFrom,air_pressure,air_temperature,relative_humidity,Temp,platform_speed_wrt_ground,air_pressure_at_mean_sea_level,platform_orientation
2019-07-23 23:50,51.1823666666667,-96.6002716666667,0.7,3.8,176,991.60,25.9,63,23.36,11.4,1017.17,266.3
2019-07-24 00:00,51.19673,-96.6148933333333,6.9,16.5,225,991.38,25.8,62,23.62,6.1,1016.94,304.2
2019-07-24 00:10,51.19711,-96.6164983333333,6.1,8.8,215,991.39,27.1,47,23.34,0.4,1016.90,304.2
2019-07-24 00:20,51.1971116666667,-96.6165,8.4,13.2,228,991.33,28.3,39,22.96,0.0,1016.79,304.2
2019-07-24 00:30,51.1971033333333,-96.6165016666667,9.1,14.9,235,991.27,28.5,40,22.92,0.0,1016.73,304.2
2019-07-24 00:40,51.1971,-96.616495,7.8,13.2,239,991.19,28.3,41,22.90,0.0,1016.64,304.2
2019-07-24 00:50,51.1971,-96.616495,9.0,13.4,237,991.15,28.1,43,22.87,0.0,1016.61,304.2
2019-07-24 01:00,51.1971016666667,-96.6165,8.0,12.9,238,991.13,27.8,44,22.88,0.0,1016.60,2.3
2019-07-24 01:10,51.1971,-96.6165,7.9,11.3,241,991.05,27.6,45,22.88,0.0,1016.52,2.3
2019-07-24 01:20,51.1971,-96.6165,7.3,10.8,243,991.03,27.3,45,22.87,0.0,1016.50,2.3
2019-07-24 01:30,51.1971266666667,-96.6165116666667,7.2,9.9,245,991.06,27.1,46,22.85,0.0,1016.54,2.3
2019-07-24 01:40,51.1971016666667,-96.6165,6.4,10.0,245,991.12,26.7,47,22.84,0.0,1016.59,2.3
2019-07-24 01:50,51.19711,-96.6164933333333,5.8,9.0,247,991.11,26.5,47,22.84,0.0,1016.60,2.3
2019-07-24 02:00,51.197105,-96.616495,5.6,9.4,245,991.16,26.2,47,22.84,0.0,1016.60,2.1
2019-07-24 02:10,51.1971033333333,-96.6165,5.2,7.8,240,991.19,25.8,48,22.84,0.0,1016.60,2.1
2019-07-24 02:20,51.197105,-96.6165066666667,5.6,8.1,239,991.15,25.3,49,22.83,0.0,1016.58,2.1
2019-07-24 02:30,51.1971083333333,-96.6165066666667,5.5,7.6,240,991.25,25.0,51,22.82,0.0,1016.69,2.1
2019-07-24 02:40,51.19711,-96.6165033333333,5.0,6.4,239,991.29,24.7,52,22.80,0.0,1016.76,2.1
2019-07-24 02:50,51.19711,-96.6165016666667,5.6,7.1,240,991.36,24.3,54,22.81,0.0,1016.86,2.1
2019-07-24 03:00,51.19711,-96.6165016666667,5.6,7.6,241,991.42,24.2,53,22.82,0.0,1016.94,290.4
2019-07-24 03:10,51.1971116666667,-96.6165016666667,5.7,7.8,243,991.40,24.2,52,22.81,0.0,1016.93,290.4
2019-07-24 03:20,51.1971116666667,-96.6165,6.5,11.2,253,991.39,24.3,49,22.79,0.0,1016.92,290.4
2019-07-24 03:30,51.1971116666667,-96.6165,6.7,10.9,261,991.37,24.5,50,22.77,0.0,1016.91,290.4
2019-07-24 03:40,51.19711,-96.6165,5.4,9.3,249,991.38,24.2,54,22.77,0.0,1016.95,290.4
2019-07-24 03:50,51.19711,-96.6165,5.9,8.2,240,991.44,23.8,53,22.79,0.0,1017.03,290.4
2019-07-24 04:00,51.19711,-96.6165,5.9,8.5,249,991.40,23.5,54,22.79,0.0,1017.02,360.0
2019-07-24 04:10,51.19711,-96.6165,6.5,10.5,245,991.30,23.5,53,22.77,0.0,1016.94,360.0
2019-07-24 04:20,51.1971133333333,-96.616505,5.9,9.7,251,991.28,23.3,54,22.76,0.0,1016.95,360.0
2019-07-24 04:30,51.19711,-96.6164983333333,5.3,8.5,248,991.27,23.1,55,22.74,0.0,1016.95,360.0
2019-07-24 04:40,51.19711,-96.6165033333333,5.9,8.3,247,991.25,22.8,56,22.71,0.0,1016.96,360.0
2019-07-24 04:50,51.197105,-96.6164966666667,6.2,8.8,242,991.24,22.6,58,22.69,0.0,1016.96,360.0
2019-07-24 05:00,51.1971083333333,-96.6165016666667,6.1,8.8,242,991.24,22.4,59,22.69,0.0,1016.98,360.0
2019-07-24 05:10,51.197105,-96.6165,4.9,7.6,242,991.25,22.2,60,22.66,0.0,1016.99,360.0
2019-07-24 05:20,51.1971066666667,-96.6165,5.1,8.0,244,991.26,22.2,61,22.62,0.0,1016.99,360.0
2019-07-24 05:30,51.1971066666667,-96.6164983333333,4.7,6.9,246,991.25,22.1,62,22.59,0.0,1017.00,360.0
2019-07-24 05:40,51.1971066666667,-96.6164983333333,4.8,6.9,258,991.27,21.9,63,22.57,0.0,1017.05,360.0
2019-07-24 05:50,51.1971066666667,-96.6165,5.1,8.3,262,991.30,21.8,64,22.53,0.0,1017.09,360.0
2019-07-24 06:00,51.1971066666667,-96.6165,5.2,7.4,275,991.33,21.8,66,22.52,0.0,1017.13,360.0
2019-07-24 06:10,51.1971066666667,-96.6165016666667,5.2,7.1,278,991.32,21.7,68,22.49,0.0,1017.13,360.0
2019-07-24 06:20,51.1971066666667,-96.6165,4.7,6.8,268,991.36,21.5,70,22.47,0.0,1017.18,360.0
2019-07-24 06:30,51.1971083333333,-96.6165016666667,4.5,6.6,255,991.32,21.4,71,22.47,0.0,1017.16,360.0
2019-07-24 06:40,51.1971083333333,-96.6165016666667,4.5,7.2,259,991.20,21.3,72,22.47,0.0,1017.06,360.0
2019-07-24 06:50,51.1971083333333,-96.6165016666667,5.3,7.7,253,991.19,21.3,73,22.46,0.0,1017.05,360.0
2019-07-24 07:00,51.1971066666667,-96.6165,5.6,8.1,249,991.12,21.2,75,22.46,0.0,1016.99,360.0
2019-07-24 07:10,51.1971066666667,-96.6164833333333,6.3,8.6,251,991.04,21.0,77,22.44,0.0,1016.92,360.0
2019-07-24 07:20,51.1971016666667,-96.6165133333333,5.7,9.1,253,991.00,21.0,78,22.43,0.0,1016.88,360.0
2019-07-24 07:30,51.1971016666667,-96.616505,6.0,8.7,249,991.03,21.0,80,22.43,0.0,1016.93,360.0
2019-07-24 07:40,51.1971033333333,-96.616505,7.0,9.9,246,991.08,20.9,80,22.43,0.0,1016.98,360.0
2019-07-24 07:50,51.1971033333333,-96.6165066666667,6.7,9.8,245,991.11,20.9,80,22.44,0.0,1017.01,360.0
2019-07-24 08:00,51.1971016666667,-96.616505,6.4,10.0,247,991.14,20.8,81,22.43,0.0,1017.05,191.0
2019-07-24 08:10,51.1971033333333,-96.616505,6.6,9.3,244,991.11,20.8,81,22.43,0.0,1017.03,191.0
2019-07-24 08:20,51.1970866666667,-96.6164883333333,6.8,9.7,245,991.12,20.8,83,22.43,0.0,1017.05,191.0
2019-07-24 08:30,51.1971033333333,-96.616505,6.0,8.3,248,991.09,20.8,84,22.44,0.0,1017.02,191.0
2019-07-24 08:40,51.1971,-96.6165016666667,6.4,9.3,246,991.11,20.8,83,22.43,0.0,1017.04,191.0
2019-07-24 08:50,51.1971,-96.6164966666667,6.8,9.5,248,991.18,20.9,81,22.42,0.0,1017.12,191.0
2019-07-24 09:00,51.1971,-96.6164983333333,6.7,10.2,247,991.11,21.0,80,22.43,0.0,1017.04,90.0
2019-07-24 09:10,51.1970866666667,-96.6164916666667,6.4,9.1,249,991.13,20.9,79,22.43,0.0,1017.06,90.0
2019-07-24 09:20,51.1970983333333,-96.616495,5.9,8.5,249,991.08,20.8,77,22.42,0.0,1017.03,90.0
2019-07-24 09:30,51.1971,-96.6164966666667,5.5,7.5,250,991.07,20.8,76,22.40,0.0,1017.02,90.0
2019-07-24 09:40,51.1971033333333,-96.6164966666667,5.3,7.8,249,991.05,20.8,74,22.39,0.0,1017.00,90.0
2019-07-24 09:50,51.1971016666667,-96.616495,5.7,8.1,250,991.02,20.6,74,22.37,0.0,1016.98,90.0
2019-07-24 10:00,51.1971016666667,-96.6164983333333,5.5,9.0,251,991.00,20.6,74,22.36,0.0,1016.95,90.0
2019-07-24 10:10,51.1971016666667,-96.6165,6.6,8.9,246,990.95,20.6,72,22.34,0.0,1016.91,90.0
2019-07-24 10:20,51.1971016666667,-96.6165,6.6,10.2,249,990.93,20.6,72,22.32,0.0,1016.89,90.0
2019-07-24 10:30,51.1971033333333,-96.6165,6.6,10.5,250,990.95,20.6,70,22.33,0.0,1016.91,90.0
2019-07-24 10:40,51.1971033333333,-96.6165016666667,6.7,9.3,247,990.98,20.6,70,22.36,0.0,1016.93,90.0
2019-07-24 10:50,51.1971016666667,-96.616525,6.2,9.7,244,990.88,20.5,72,22.39,0.0,1016.84,90.0
2019-07-24 11:00,51.1971016666667,-96.61651,6.4,8.4,245,990.83,20.4,73,22.39,0.0,1016.78,0.0
2019-07-24 11:10,51.1971,-96.6165033333333,6.1,9.3,246,990.75,20.5,73,22.39,0.0,1016.71,0.0
2019-07-24 11:20,51.1971016666667,-96.616505,6.2,8.8,246,990.79,20.6,72,22.40,0.0,1016.74,0.0
2019-07-24 11:30,51.1971016666667,-96.6165033333333,6.4,9.3,247,990.84,20.7,73,22.39,0.0,1016.79,0.0
2019-07-24 11:40,51.1971033333333,-96.616505,5.9,8.5,247,990.78,20.7,73,22.39,0.0,1016.74,0.0
2019-07-24 11:50,51.197105,-96.616505,6.3,9.8,246,990.75,20.8,74,22.38,0.0,1016.70,0.0
2019-07-24 12:00,51.197105,-96.616505,6.3,9.1,243,990.84,20.9,74,22.37,0.0,1016.79,270.0
2019-07-24 12:10,51.1971066666667,-96.616505,6.0,8.2,237,990.88,21.1,74,22.37,0.0,1016.82,270.0
2019-07-24 12:20,51.1971066666667,-96.6165033333333,5.1,8.0,238,990.93,21.3,73,22.39,0.0,1016.87,270.0
2019-07-24 12:30,51.1971016666667,-96.6165016666667,5.4,7.5,233,991.01,21.5,72,22.39,0.0,1016.94,270.0
2019-07-24 12:40,51.2066183333333,-96.6049233333333,4.8,11.7,161,990.98,21.5,72,22.42,4.3,1016.92,270.0
2019-07-24 12:50,51.2347166666667,-96.6235116666667,4.9,10.1,287,990.87,21.4,73,22.73,10.9,1016.81,270.0
2019-07-24 13:00,51.2354816666667,-96.6620066666667,16.6,20.8,251,990.09,21.8,71,22.74,8.7,1015.99,323.4
2019-07-24 13:10,51.2297016666667,-96.68151,12.9,19.6,239,990.27,21.8,75,22.82,4.9,1016.17,323.4
2019-07-24 13:20,51.2278916666667,-96.690325,10.7,12.5,230,990.40,22.1,73,22.90,2.1,1016.28,323.4
2019-07-24 13:30,51.2254083333333,-96.6989016666667,10.5,11.8,218,990.40,22.1,71,22.83,2.1,1016.28,323.4
2019-07-24 13:40,51.2220816666667,-96.7084033333333,11.1,13.4,220,990.27,22.1,71,22.73,2.5,1016.14,323.4
2019-07-24 13:50,51.2163833333333,-96.7242983333333,12.9,19.0,222,990.15,22.1,71,22.72,4.1,1016.02,323.4
2019-07-24 14:00,51.21643,-96.7244583333333,9.7,11.6,210,990.29,22.2,72,22.68,0.0,1016.15,286.0
2019-07-24 14:10,51.2163683333333,-96.7243383333333,9.7,10.9,209,990.13,22.2,70,22.66,0.0,1015.97,286.0
2019-07-24 14:20,51.2160166666667,-96.7253583333333,9.8,12.4,216,990.02,22.2,70,22.65,0.3,1015.85,286.0
2019-07-24 14:30,51.2341716666667,-96.6909383333333,4.4,9.2,110,990.17,22.4,70,22.73,10.1,1015.99,286.0
2019-07-24 14:40,51.2546683333333,-96.6547633333333,4.8,6.1,60,990.14,22.5,70,22.71,11.0,1015.97,286.0
2019-07-24 14:50,51.2812966666667,-96.6293816666667,5.2,10.0,56,990.03,22.7,71,22.75,11.2,1015.83,286.0
2019-07-24 15:00,51.3071866666667,-96.6054066666667,7.6,9.4,96,989.96,22.7,72,22.87,10.8,1015.75,3.6
2019-07-24 15:10,51.3150783333333,-96.5981333333333,6.7,8.1,174,989.86,24.2,65,22.67,3.3,1015.58,3.6
2019-07-24 15:20,51.3221216666667,-96.591395,6.5,7.5,183,989.80,26.2,61,22.77,3.0,1015.42,3.6
2019-07-24 15:30,51.329345,-96.5846683333333,7.8,9.7,193,989.73,28.1,54,22.87,3.0,1015.27,3.6
2019-07-24 15:40,51.337175,-96.5792866666667,8.0,11.0,198,989.58,26.0,66,22.89,3.1,1015.20,3.6
2019-07-24 15:50,51.3373983333333,-96.5789916666667,9.6,10.7,195,989.40,23.0,75,22.91,0.1,1015.15,3.6
2019-07-24 16:00,51.3374133333333,-96.57902,8.6,9.8,200,989.34,23.1,73,22.94,0.0,1015.08,27.0
2019-07-24 16:10,51.3374,-96.5789983333333,8.4,9.5,206,989.35,23.3,73,22.99,0.0,1015.08,27.0
2019-07-24 16:20,51.346255,-96.5859916666667,6.9,12.1,230,989.32,23.0,75,23.02,3.6,1015.06,27.0
2019-07-24 16:30,51.3757916666667,-96.60073,4.6,7.0,268,989.34,22.9,74,22.99,11.1,1015.08,27.0
2019-07-24 16:40,51.405375,-96.61446,1.2,4.6,259,989.17,23.4,70,23.29,11.1,1014.87,27.0
2019-07-24 16:50,51.4164333333333,-96.6197183333333,6.8,10.2,162,988.98,26.0,59,23.06,4.2,1014.56,27.0
2019-07-24 17:00,51.4239916666667,-96.6226916666667,8.4,11.7,161,988.83,26.0,60,23.10,2.8,1014.35,17.0
2019-07-24 17:10,51.4314883333333,-96.6261883333333,10.4,14.1,161,988.58,25.8,60,23.23,2.8,1014.01,17.0
2019-07-24 17:20,51.4409033333333,-96.6320983333333,9.4,12.0,168,988.61,25.2,62,23.29,3.6,1013.99,17.0
2019-07-24 17:30,51.4415283333333,-96.6329,12.0,14.4,163,988.39,24.2,64,23.23,0.3,1013.90,17.0
2019-07-24 17:40,51.44154,-96.6329883333333,11.9,14.5,161,988.26,24.1,64,23.22,0.0,1013.90,17.0
2019-07-24 17:50,51.4415,-96.632925,12.0,14.2,161,988.21,24.0,66,23.22,0.0,1013.84,17.0
2019-07-24 18:00,51.4415216666667,-96.632825,12.8,16.4,168,987.99,24.4,61,23.22,0.0,1013.60,352.7
2019-07-24 18:10,51.44154,-96.63289,15.0,19.8,169,987.76,24.5,58,23.22,0.0,1013.36,352.7
2019-07-24 18:20,51.44136,-96.632705,14.8,17.7,167,987.77,24.3,61,23.20,0.1,1013.39,352.7
2019-07-24 18:30,51.463045,-96.646975,5.7,16.8,164,988.00,24.4,62,23.20,8.4,1013.60,352.7
2019-07-24 18:40,51.4929366666667,-96.6603616666667,3.1,6.3,147,987.89,25.0,62,23.44,11.2,1013.35,352.7
2019-07-24 18:50,51.5225066666667,-96.67638,4.4,7.6,157,987.80,25.1,63,23.48,11.2,1013.25,352.7
2019-07-24 19:00,51.5523933333333,-96.691835,5.3,8.9,159,987.80,25.5,62,23.40,11.3,1013.24,341.9
2019-07-24 19:10,51.5824283333333,-96.7062133333333,4.1,6.9,160,987.70,24.9,66,23.19,11.3,1013.20,341.9
2019-07-24 19:20,51.6122883333333,-96.7203833333333,4.0,8.3,156,987.59,25.6,65,22.99,11.2,1013.10,341.9
2019-07-24 19:30,51.632135,-96.7578183333333,8.0,12.8,191,987.40,24.4,67,22.98,11.0,1012.95,341.9
2019-07-24 19:40,51.6374533333333,-96.7992366666667,13.2,18.5,196,987.22,25.6,56,23.27,9.5,1012.72,341.9
2019-07-24 19:50,51.63933,-96.802755,12.1,19.1,166,986.92,27.7,48,23.81,1.0,1012.30,341.9
2019-07-24 20:00,51.6393233333333,-96.8027933333333,12.3,17.8,153,986.78,29.3,47,23.94,0.0,1012.09,332.6
2019-07-24 20:10,51.639335,-96.8027766666667,13.8,19.2,151,986.67,28.8,47,24.21,0.0,1012.01,332.6
2019-07-24 20:20,51.6393333333333,-96.8027866666667,15.2,20.6,156,986.65,28.6,47,24.22,0.0,1012.00,332.6
2019-07-24 20:30,51.6393216666667,-96.8027633333333,15.3,23.8,165,986.63,28.4,47,24.27,0.0,1011.96,332.6
2019-07-24 20:40,51.639325,-96.8027716666667,16.5,21.8,163,986.61,28.2,46,24.30,0.0,1011.94,332.6
2019-07-24 20:50,51.639325,-96.802765,15.9,23.6,163,986.57,28.3,46,24.29,0.0,1011.87,332.6
2019-07-24 21:00,51.63932,-96.80277,15.0,22.3,163,986.52,28.4,45,24.30,0.0,1011.84,332.0
2019-07-24 21:10,51.6382533333333,-96.8012866666667,15.0,21.6,167,986.46,29.2,43,24.34,0.5,1011.72,332.0
2019-07-24 21:20,51.6515366666667,-96.778055,15.0,25.6,152,986.07,27.6,47,24.03,7.1,1011.44,332.0
2019-07-24 21:30,51.6812333333333,-96.7824616666667,9.1,16.3,127,986.18,27.4,53,23.46,10.7,1011.51,332.0
2019-07-24 21:40,51.71011,-96.8040583333333,6.4,8.9,148,986.05,27.9,53,23.11,11.5,1011.27,332.0
2019-07-24 21:50,51.7388783333333,-96.8276266666667,7.3,10.4,124,985.89,28.2,53,22.96,11.6,1011.02,332.0
2019-07-24 22:00,51.7512933333333,-96.8412866666667,11.8,15.4,144,985.72,26.1,61,23.24,5.4,1010.95,335.1
2019-07-24 22:10,51.7593066666667,-96.850425,10.5,13.8,152,985.63,24.6,62,23.28,3.5,1010.93,335.1
2019-07-24 22:20,51.7676933333333,-96.858855,10.0,15.0,169,985.44,26.2,50,23.14,3.6,1010.68,335.1
2019-07-24 22:30,51.774955,-96.8650783333333,13.1,18.1,136,985.31,27.2,57,22.97,3.0,1010.51,335.1
2019-07-24 22:40,51.7750566666667,-96.8651383333333,17.0,20.0,146,984.67,25.0,63,22.88,0.0,1009.95,335.1
2019-07-24 22:50,51.7750566666667,-96.8651266666667,16.5,20.6,147,984.62,24.5,65,22.87,0.0,1009.91,335.1
2019-07-24 23:00,51.77503,-96.8652066666667,15.3,19.2,156,984.63,24.6,65,22.89,0.0,1009.88,344.1
2019-07-24 23:10,51.775035,-96.8651683333333,16.7,19.7,148,984.44,24.8,63,22.91,0.0,1009.75,344.1
2019-07-24 23:20,51.77504,-96.86519,17.1,20.7,147,984.27,24.7,64,22.97,0.0,1009.59,344.1
